Probability
0 0 0 0 0 0 0 0 0 0 0 0 0 0 0 0 0 0 0 0 0 0 0 0 0 0 0 0 1 3 7 9 9 9 9 9 9 6 4 3 2 1 0 0
0 0 0 0 0 0 0 0 0 0 0 0 0 0 0 0 0 0 0 0 0 0 0 0 0 0 0 0 1 3 5 7 6 7 8 7 7 6 4 3 2 1 0 0
0 0 0 0 0 0 0 0 0 0 0 0 0 0 0 0 0 0 0 0 0 0 0 0 0 0 0 0 0 1 3 4 3 4 4 4 4 5 4 3 2 1 0 0
0 0 0 0 0 0 0 0 0 0 0 0 0 0 0 0 0 0 0 0 0 0 0 0 0 0 0 0 0 0 1 2 1 1 1 1 1 3 3 3 3 2 1 1
0 0 0 0 0 0 0 0 0 0 0 0 0 0 0 0 0 0 0 0 0 0 0 0 0 0 0 0 0 0 0 0 0 0 0 0 0 1 2 3 3 2 2 2
0 0 0 0 0 0 0 0 0 0 0 0 0 0 0 0 0 0 0 0 0 0 0 0 0 0 0 0 0 0 0 0 0 0 0 0 0 0 1 2 1 1 1 1
0 0 0 0 0 0 0 0 0 0 0 0 0 0 0 0 0 0 0 0 0 0 0 0 0 0 0 0 0 0 0 0 0 0 0 0 0 0 0 0 0 0 0 0
0 0 0 0 0 0 0 0 0 0 0 0 0 0 0 0 0 0 0 0 0 0 0 0 0 0 0 0 0 0 0 0 0 0 0 0 0 0 0 0 0 0 0 0
0 0 0 0 0 0 0 0 0 0 0 0 0 0 0 0 0 0 0 0 0 0 0 0 0 0 0 0 0 0 0 0 0 0 0 0 0 0 0 0 0 0 0 0
0 0 0 0 0 0 0 0 0 0 0 0 0 0 0 0 0 0 0 0 0 0 0 0 0 0 0 0 0 0 0 0 0 0 0 0 0 0 0 0 0 0 0 0
0 0 0 0 0 0 0 0 0 0 0 0 0 0 0 0 0 0 0 0 0 0 0 0 0 0 0 0 0 0 0 0 0 0 0 0 0 0 0 0 0 0 0 0
0 0 0 0 0 0 0 0 0 0 0 0 0 0 0 0 0 0 0 0 0 0 0 0 0 0 0 0 0 0 0 0 0 0 0 0 0 0 0 0 0 0 0 0
0 0 0 0 0 0 0 0 0 0 0 0 0 0 0 0 0 0 0 0 0 0 0 0 0 0 0 0 0 0 0 0 0 0 0 0 0 0 0 0 0 0 0 0
0 0 0 0 0 0 0 0 0 0 0 0 0 0 0 0 0 0 0 0 0 0 0 0 0 0 0 0 0 0 0 0 0 0 0 0 0 0 0 0 0 0 0 0
0 0 0 0 0 0 0 0 0 0 0 0 0 0 0 0 0 0 0 0 0 0 0 0 0 0 0 0 0 0 0 0 0 0 0 0 0 0 0 0 0 0 0 0
0 0 0 0 0 0 0 0 0 0 0 0 0 0 0 0 0 0 0 0 0 0 0 0 0 0 0 0 0 0 0 0 0 0 0 0 0 0 0 0 0 0 0 0
0 0 0 0 0 0 0 0 0 0 0 0 0 0 0 0 0 0 0 0 0 0 0 0 0 0 0 0 0 0 0 0 0 0 0 0 0 0 0 0 0 0 0 0
0 0 0 0 0 0 0 0 0 0 0 0 0 0 0 0 0 0 0 0 0 0 0 0 0 0 0 0 0 0 0 0 0 0 0 0 0 0 0 0 0 0 0 0
0 0 0 0 0 0 0 0 0 0 0 0 0 0 0 0 0 0 0 0 0 0 0 0 0 0 0 0 0 0 0 0 0 0 0 0 0 0 0 0 0 0 0 0
0 0 0 0 0 0 0 0 0 0 0 0 0 0 0 0 0 0 0 0 0 0 0 0 0 0 0 0 0 0 0 0 0 0 0 0 0 0 0 0 0 0 0 0
0 0 0 0 0 0 0 0 0 0 0 0 0 0 0 0 0 0 0 0 0 0 0 0 0 0 0 0 0 0 0 0 0 0 0 0 0 0 0 0 0 0 0 0
0 0 0 0 0 0 0 0 0 0 0 0 0 0 0 0 0 0 0 0 0 0 0 0 0 0 0 0 0 0 0 0 0 0 0 0 0 0 0 0 0 0 0 0
0 0 0 0 0 0 0 0 0 0 0 0 0 0 0 0 0 0 0 0 0 0 0 0 0 0 0 0 0 0 0 0 0 0 0 0 0 0 0 0 0 0 0 0
0 0 0 0 0 0 0 0 0 0 0 0 0 0 0 0 0 0 0 0 0 0 0 0 0 0 0 0 0 0 0 0 0 0 0 0 0 0 0 0 0 0 0 0
0 0 0 0 0 0 0 0 0 0 0 0 0 0 0 0 0 0 0 0 0 0 0 0 0 0 0 0 0 0 0 0 0 0 0 0 0 0 0 0 0 0 0 0
0 0 0 0 0 0 0 0 0 0 0 0 0 0 0 0 0 0 0 0 0 0 0 0 0 0 0 0 0 0 0 0 0 0 0 0 0 0 0 0 0 0 0 0
0 0 0 0 0 0 0 0 0 0 0 0 0 0 0 0 0 0 0 0 0 0 0 0 0 0 0 0 0 0 0 0 0 0 0 0 0 0 0 0 0 0 0 0
Wind_Speed
10 11 9 10 11 8 7 7 7 8 9 10 10 9 9 8 9 10 11 11 11 10 10 9 8 6 4 3 3 4 7 9 10 11 12 11 11 11 12 12 13 13 12 11
7 8 8 10 11 9 8 7 8 9 11 8 8 6 6 7 8 10 11 11 11 11 11 10 9 7 6 4 3 3 5 7 7 7 9 11 11 11 12 12 12 12 13 12
6 6 6 7 6 5 5 4 4 7 8 8 8 9 7 6 8 9 10 11 11 11 9 9 9 7 6 4 3 2 3 5 5 6 7 8 10 11 12 12 12 12 12 12
4 4 6 7 3 4 5 7 5 6 7 8 9 9 5 4 6 8 10 11 11 10 10 9 8 7 5 4 2 1 2 3 4 6 6 7 8 10 11 10 11 11 11 12
2 4 9 6 3 2 4 6 4 6 8 8 8 6 5 4 6 7 8 9 9 9 9 9 9 7 5 3 1 0 0 2 3 5 6 7 8 9 9 9 9 10 10 11
3 4 7 6 3 2 1 5 4 5 7 7 5 4 6 8 8 9 8 8 8 8 8 8 8 7 4 2 1 1 2 2 2 4 6 7 7 7 6 7 8 8 8 9
5 6 9 7 3 1 2 6 5 4 6 5 4 6 8 9 9 8 9 9 9 8 7 7 7 6 4 3 2 3 2 1 1 3 5 6 5 5 6 6 7 7 7 7
5 6 10 4 1 4 7 4 4 5 5 6 7 8 8 8 9 9 9 9 9 8 7 6 6 5 5 4 4 2 1 0 0 1 2 3 5 5 6 7 8 7 6 6
9 9 6 3 5 6 4 5 5 5 7 6 7 7 8 8 8 8 8 9 8 7 8 7 5 4 4 5 4 2 1 1 1 1 2 3 5 6 6 6 6 6 6 6
6 9 8 7 6 5 5 6 7 7 7 6 7 8 9 8 8 8 8 8 7 7 7 7 6 5 4 4 2 1 1 1 1 2 2 2 3 4 5 6 6 6 6 6
8 8 7 7 6 6 6 6 6 7 6 6 7 8 8 7 8 7 8 7 7 6 7 8 7 6 5 3 2 1 1 1 1 1 2 2 1 2 3 4 6 7 7 7
9 8 6 7 5 5 6 7 7 7 7 6 5 7 7 7 7 7 7 7 7 7 7 7 7 6 5 3 1 1 0 1 1 1 1 1 2 2 4 3 5 6 7 7
10 7 7 8 7 6 7 8 7 7 7 7 6 6 7 7 6 6 6 7 7 7 7 7 6 6 5 3 1 1 1 1 1 1 2 2 3 3 3 5 7 7 8 9
7 5 6 6 7 6 7 7 6 7 6 6 6 6 6 6 6 6 7 7 7 7 7 7 6 6 5 3 2 1 2 2 2 1 2 2 2 3 4 5 4 3 5 10
6 6 7 7 7 6 6 5 6 7 6 6 5 5 6 6 7 7 7 7 7 7 7 7 7 6 5 3 2 2 2 1 1 1 2 2 3 3 4 4 5 5 5 6
5 5 5 6 7 7 6 6 6 7 7 7 6 6 6 7 7 7 6 6 6 8 8 7 7 6 5 3 2 2 1 2 2 2 2 3 3 4 4 5 5 5 5 6
4 4 4 6 7 7 6 6 7 7 7 7 7 7 7 7 7 7 6 6 6 8 8 7 7 7 5 3 3 2 2 2 2 2 3 3 4 4 4 5 5 5 4 5
4 5 5 6 6 7 7 6 6 7 7 7 7 7 7 7 8 8 7 7 7 8 7 7 7 6 5 4 3 2 2 2 2 3 3 3 4 4 4 5 6 6 5 6
3 4 5 5 5 5 6 7 7 7 7 7 7 7 7 7 7 8 7 7 7 8 8 6 9 7 5 4 3 3 3 3 3 3 4 5 4 4 5 5 5 6 6 5
3 4 5 5 5 6 7 7 7 6 6 6 7 7 8 7 7 7 7 7 6 6 7 7 7 5 4 4 4 3 3 3 4 4 4 4 5 5 5 5 5 6 5 5
4 5 5 5 6 6 6 7 6 7 6 6 7 7 8 8 7 7 6 7 6 6 7 9 5 4 3 3 3 3 3 4 4 5 5 5 5 5 5 5 5 5 5 5
4 5 5 6 6 7 6 6 6 6 6 6 7 7 7 8 7 7 7 6 6 8 6 5 4 4 4 3 2 3 3 4 4 4 5 5 5 5 5 6 5 5 5 5
4 5 5 6 6 7 7 6 6 6 6 7 7 7 7 7 6 5 6 5 4 7 6 4 5 5 5 2 2 3 4 4 4 4 5 5 5 5 6 6 5 6 6 6
4 5 5 5 5 6 7 7 6 5 6 6 6 7 6 6 5 5 5 8 10 9 5 5 6 6 4 2 2 3 4 4 4 5 5 5 5 5 5 6 6 5 6 7
4 5 5 5 5 5 6 6 6 6 5 5 6 6 5 4 5 5 5 6 8 8 5 5 6 5 2 2 3 3 4 4 5 5 5 5 5 6 6 6 6 6 6 6
4 4 4 5 5 5 5 4 4 5 5 5 5 4 4 4 4 4 4 4 5 5 4 2 2 2 2 2 3 3 4 4 5 5 5 6 6 6 6 6 7 6 6 6
4 4 4 4 4 4 4 4 4 5 5 5 6 5 5 4 4 4 4 3 3 2 2 1 1 1 2 2 3 3 3 4 4 5 5 5 5 5 6 7 6 6 6 6
Wind_Direction
255 266 266 265 274 273 253 242 249 271 278 294 311 312 320 330 338 345 347 350 351 349 343 340 336 328 314 286 240 212 197 193 196 196 193 191 189 189 187 188 190 187 187 190
273 265 269 270 269 267 261 257 259 275 278 294 301 305 316 329 339 344 342 342 342 342 341 339 333 327 319 308 272 212 197 195 190 185 186 188 187 184 184 188 187 186 189 189
274 294 302 267 259 259 260 258 251 264 277 308 316 316 315 321 332 336 336 336 334 332 331 329 326 320 312 303 292 216 198 190 178 174 180 185 184 181 184 186 185 187 190 189
280 330 263 248 242 241 255 254 258 277 293 299 297 294 284 299 322 327 329 329 327 325 325 325 323 319 315 318 322 251 203 190 175 171 176 174 177 186 186 184 186 189 190 190
243 266 274 282 274 234 242 262 263 276 295 305 308 310 294 317 325 314 310 314 314 314 317 321 323 320 317 321 336 357 241 213 187 173 171 172 180 186 182 180 184 187 187 185
213 246 259 256 269 274 208 271 281 285 294 303 324 319 295 320 319 311 311 315 316 319 322 325 324 322 317 322 330 291 265 247 203 180 176 181 184 180 175 175 180 180 184 186
216 238 262 258 278 64 182 258 287 285 285 293 275 260 288 308 310 312 315 316 318 321 323 320 323 327 323 322 307 294 292 277 200 183 182 177 171 166 165 164 165 171 178 181
193 219 252 249 163 197 233 263 282 286 284 281 278 284 296 303 307 314 319 319 321 322 321 323 329 332 327 312 310 324 342 47 131 167 157 150 153 157 158 160 164 167 169 167
200 222 244 236 226 245 248 266 277 279 285 285 287 289 296 299 304 309 313 316 318 318 319 325 329 329 316 313 326 354 36 62 84 116 137 149 155 156 156 161 165 165 166 166
247 259 261 265 265 267 259 260 272 276 280 283 282 287 292 296 303 310 311 311 316 320 321 322 326 325 313 315 329 15 56 75 101 121 118 124 142 156 162 166 165 163 164 164
247 265 283 273 259 266 278 283 286 285 278 276 281 286 288 293 298 302 304 308 314 315 313 312 318 318 318 321 336 32 65 102 106 107 111 112 114 151 168 179 175 169 170 167
238 233 232 257 264 274 281 285 287 289 291 289 281 285 291 294 294 298 301 306 310 310 308 308 311 311 312 311 306 122 121 141 137 127 118 119 114 76 65 118 137 148 155 157
241 252 247 260 269 269 272 279 283 280 279 286 289 284 287 290 294 298 301 304 304 303 301 302 303 302 306 306 290 205 208 212 181 157 152 158 147 141 119 79 90 116 131 137
244 252 262 260 264 277 278 281 283 282 279 278 284 288 289 292 297 300 300 300 301 301 300 300 298 297 301 299 270 220 208 212 199 182 169 170 157 146 140 141 131 103 112 128
241 235 247 268 278 285 286 287 290 290 293 293 290 293 295 295 295 295 295 297 299 300 299 299 296 294 302 292 253 220 205 195 189 176 165 156 142 131 129 129 131 128 119 119
255 261 262 268 276 285 288 286 285 288 291 292 294 294 293 290 289 291 294 299 301 298 296 294 291 291 292 273 243 228 200 206 208 171 162 151 143 138 136 136 135 137 138 137
246 263 270 279 283 286 283 278 278 285 290 291 292 295 296 297 298 297 296 295 290 288 288 287 289 293 288 261 230 214 192 187 191 179 170 157 149 147 145 141 139 136 134 144
229 244 256 265 276 283 288 289 288 288 287 290 297 298 297 296 296 296 298 299 298 295 292 288 290 293 283 256 224 201 194 188 184 179 164 152 145 143 141 139 137 133 128 127
259 263 271 274 275 278 281 284 285 286 288 289 290 291 289 287 288 292 295 293 290 291 292 292 293 291 281 259 230 195 185 179 174 164 151 147 144 143 142 140 139 134 132 129
283 284 284 286 287 283 284 285 284 283 283 284 284 286 290 292 293 293 292 285 274 275 285 290 289 281 273 252 226 187 178 176 168 158 150 149 148 144 140 139 137 135 133 131
287 292 295 296 295 292 290 289 285 283 283 281 280 283 287 290 291 290 290 289 288 286 287 290 287 278 268 239 208 177 174 173 165 158 154 152 148 145 144 140 138 137 137 133
280 286 289 293 295 295 294 291 285 284 285 283 281 281 285 288 290 287 276 271 285 293 292 282 275 265 256 234 185 169 168 165 159 155 154 154 153 151 150 145 142 141 139 138
281 285 289 292 293 294 295 291 286 284 282 281 280 280 278 279 280 281 287 287 287 291 288 278 275 266 251 223 178 169 163 159 157 157 156 155 154 152 150 146 146 147 145 144
284 287 288 292 296 298 297 296 293 287 280 279 276 273 273 280 281 268 270 289 295 293 283 278 272 262 248 210 175 166 161 158 156 153 151 150 150 149 149 148 148 147 145 144
283 285 289 294 295 290 289 295 298 295 292 290 286 280 273 266 269 282 285 282 284 288 285 282 273 260 230 178 166 161 158 157 154 151 150 151 151 150 149 148 148 147 146 147
280 281 280 277 276 281 286 289 290 292 295 297 297 294 289 281 275 278 281 280 278 286 284 274 253 232 179 158 155 154 154 154 153 151 148 147 146 146 147 146 145 146 145 144
284 284 287 291 287 281 281 282 284 288 290 289 295 300 299 295 291 288 284 283 285 285 282 278 241 171 152 148 145 146 147 145 143 143 144 145 145 145 146 145 144 142 142 144